Location: Belfast
(54.5830°N, 5.9330°W)
Time: 12:40:30
(UTC+01:00)

ISS - Pass Details

Date: 23 May 2018
Orbit: 402 x 407 km, 51.6° (Epoch: 20 May)

Event Time Altitude Azimuth Distance (km) Brightness Sun altitude
Rises 22:41:06 0° 231° (SW) 2,315 0.0 -7.4°
Reaches altitude 10° 22:43:19 10° 219° (SW) 1,457 -1.2 -7.5°
Maximum altitude 22:46:12 29° 158° (SSE) 779 -2.9 -7.8°
Drops below altitude 10° 22:49:04 10° 96° (E) 1,460 -1.4 -8.0°
Sets 22:51:18 0° 85° (E) 2,321 -0.3 -8.2°
